Regional Weather Roundup
Issued by NWS Grand Forks, ND

Home | Current Version | Previous Version | Text Only | Print | Product List | Glossary On
Versions: 1 2 3 4 5 6 7 8 9 10 11 12 13 14 15 16 17 18 19 20 21 22 23 24 25 26 27 28 29 30 31 32 33 34 35 36 37 38 39 40 41 42 43 44 45 46 47 48 49 50
329
ASUS43 KFGF 050331
RWRFGF
PRAIRIE TO PINES  WEATHER ROUNDUP
NATIONAL WEATHER SERVICE EASTERN NORTH DAKOTA/GRAND FORKS ND
1000 PM CDT WED MAY 04 2016

 **SATELLITE DATA USED TO AUGMENT SKY COVER AT AUTOMATED STATIONS**
 *****  WEATHER ACROSS EASTERN NORTH DAKOTA  *****

CITY           SKY/WX    TMP DP  RH WIND       PRES   REMARKS
GRAND FORKS    MOCLDY    59  29  31 S8        29.92F
GRAND FRKS AFB CLEAR     59  30  33 SE10      29.92F
DEVILS LAKE    CLEAR     63  40  42 S7        29.91S
FARGO          PTCLDY    57  28  33 S3        29.96S
WAHPETON ARPT  CLOUDY    54  28  37 CALM      29.98S
$$

 ***** WEATHER ACROSS CENTRAL AND WESTERN NORTH DAKOTA  *****

CITY           SKY/WX    TMP DP  RH WIND       PRES   REMARKS
BISMARCK       CLEAR     60  46  59 SE7       29.95R
MINOT          CLEAR     75  38  26 SW5       29.87R
JAMESTOWN      CLEAR     57  39  51 S8        29.95S
MINOT AFB      CLEAR     68  40  35 S8        29.85S
GARRISON         N/A     63  43  48 S6        29.90R
WILLISTON      CLEAR     62  42  47 CALM      29.85S
DICKINSON      CLEAR     56  40  55 S8        29.93R
HETTINGER      CLEAR     60  43  53 S10       29.99S
$$

 *****  OTHER AIRPORT OBSERVATIONS IN OUR AREA  *****

CITY           SKY/WX    TMP DP  RH WIND       PRES   REMARKS
WALHALLA       FAIR      64  37  36 S14G20    29.86F
GRAFTON AIRPOR FAIR      55  34  44 S10       29.91F
VALLEY CITY AR FAIR      57  32  38 S6        29.98S
CANDO          FAIR      61  41  48 S12       29.90F
CAVALIER APRT  FAIR      61  36  39 S13       29.87F
GWINNER        FAIR      57  36  44 SE6       29.99S
SHEYENNE NWR     N/A     53  36  53 CALM      29.95S
ROLLA          FAIR      59  37  44 SW12      29.89S
 ***** THE ABOVE OBSERVATIONS ARE NON NWS ARE NOT QUALITY
       CONTROLLED AND MAY MIS-REPORT RAIN FOR SNOW...
$$

  *****  WEATHER ACROSS NORTHERN MINNESOTA  *****

CITY           SKY/WX    TMP DP  RH WIND       PRES   REMARKS
FLAG ISLAND    MOCLDY    48  39  71 SE5       29.92F
WARROAD        CLEAR     52  36  54 S5        29.93F
ROSEAU         CLEAR     52  34  50 S8        29.92F
HALLOCK        CLEAR     57  28  33 SE9       29.89F
THF RVR FALLS  CLEAR     55  25  30 SE8       29.96F
BAUDETTE       CLEAR     50  24  36 SE3       29.94S
WASKISH        PTCLDY    46  37  71 CALM      29.96S
CROOKSTON      PTCLDY    54  34  47 SE8       29.95S
STEPHEN NDAWN    N/A     54  36  50 SE7         N/A
GREENBUSH NDAW   N/A     50  36  57 S6          N/A
$$
  *****  WEATHER ACROSS CENTRAL AND WEST MINNESOTA  *****

CITY           SKY/WX    TMP DP  RH WIND       PRES   REMARKS
FOSSTON        CLEAR     48  27  43 S3        29.98S
BEMIDJI        CLEAR     46  26  44 CALM      29.97F
PARK RAPIDS    PTCLDY    51  27  39 CALM      29.98R
ELBOW LAKE     FAIR      55  42  63 CALM      29.99F
WADENA         CLEAR     48  30  49 CALM      29.99R
DETROIT LAKES  PTCLDY    54  28  37 CALM      30.00S
MOORHEAD       CLEAR     59  30  33 SE3       29.98R
FERGUS FALLS   CLEAR     57  30  35 CALM      29.96S
MORRIS MN      CLEAR     54  30  40 NE5       29.99S
STAPLES        CLOUDY    48  27  43 CALM      29.98F
$$
  *****  WEATHER ELSEWHERE ACROSS MINNESOTA  *****

CITY           SKY/WX    TMP DP  RH WIND       PRES   REMARKS
DULUTH         PTCLDY    44  25  47 SE5       29.99R
INTRNTL FALLS  CLEAR     42  28  57 CALM      29.95R
ELY            CLEAR     37  25  60 CALM      29.97S
CLOQUET        CLEAR     43  25  49 CALM      29.99S
WHEATON        CLEAR     59  34  38 CALM      30.01S
BRAINERD       CLEAR     48  30  49 CALM      29.99R
HIBBING        CLEAR     38  20  48 CALM      29.97S
ALEXANDRIA     PTCLDY    54  27  35 NW5       30.00S
SAINT CLOUD    CLEAR     49  28  44 CALM      29.98R
MINNEAPOLIS    PTCLDY    58  23  26 VRB3      29.98R
$$

  *****  WEATHER ACROSS SOUTH DAKOTA  *****

CITY           SKY/WX    TMP DP  RH WIND       PRES   REMARKS
SIOUX FALLS    CLEAR     51  34  52 NW5       30.01R
BROOKINGS      CLEAR     56  30  37 N3        30.01R
WATERTOWN      CLEAR     58  31  35 CALM      30.01R
HURON          CLEAR     59  40  49 CALM      30.01R
SISSETON         N/A     52  35  52 CALM      29.99R
ABERDEEN       CLEAR     56  36  47 SE5       29.99R
MITCHELL       CLEAR     57  43  59 SW3       30.02R
PIERRE         CLEAR     61  42  49 S6        30.01R
MOBRIDGE       CLEAR     59  47  64 SE6       29.98R
RAPID CITY     CLEAR     56  43  61 SE6       30.01S
$$

  *****  SOME WEATHER IN NEARBY STATES *****

CITY           SKY/WX    TMP DP  RH WIND       PRES   REMARKS
GLASGOW MT     PTCLDY    69  41  36 SE7       29.82S
GREAT FALLS MT PTCLDY    64  39  39 W5        29.87F
CHEYENNE WY    CLEAR     59  34  39 S8        30.17R
SCOTTSBLUFF NE CLEAR     63  43  48 SE9       30.08R
OMAHA NE       CLEAR     58  44  60 CALM      30.00R
DES MOINES IA  CLEAR     58  34  40 NW6       29.96R
DAVENPORT IA   PTCLDY    49  36  61 NW7       29.91R
CHICAGO IL     PTCLDY    43  34  70 N16G26    29.88R
EAU CLAIRE WI  CLEAR     48  24  39 NE8       29.98R
LA CROSSE WI   CLEAR     55  23  28 N8        29.95R
$$

  *****  SOME NATIONAL WEATHER *****

CITY           SKY/WX    TMP DP  RH WIND       PRES   REMARKS
LA GUARDIA NY  CLOUDY    50  45  83 NE14      29.74F
RALEIGH NC     MOCLDY    60  53  77 CALM      29.65S
ATLANTA GA     MOCLDY    56  52  86 W7        29.77S
NEW ORLEANS LA CLEAR     68  54  60 W6        29.90R
OKLAHOMA CITY  CLEAR     67  43  41 NE8       30.03R
ALBUQUERQUE NM CLEAR     69  22  16 SE6       30.16R
SALT LAKE CITY MOCLDY    71  38  29 N7        29.93F
LOS ANGELES CA MOCLDY    60  52  74 W13       29.92R
BOISE ID       CLOUDY    75  36  24 SE12      29.79F
SEATTLE WA     CLOUDY    56  45  66 N7        30.01R
$$

*** WEATHER ACROSS MANITOBA...SASKATCHEWAN AND ONTARIO ***
                ***ONTARIO***

CITY           SKY/WX    TMP DP  RH WIND       PRES   REMARKS
GERALDTON      MOCLDY    36  32  87 VRB2      30.00S
THUNDER BAY    PTCLDY    37  32  81 VRB2      30.00S
SIOUX LOOKOUT  MOCLDY    41  25  52 S3        29.94R
TORONTO        PTCLDY    52  41  66 E7        29.76R
BIG TROUT LK   MOCLDY    41  21  45 S8        29.81F
PICKLE LAKE    NOT AVBL
DRYDEN         MOCLDY    50  21  32 S7        29.94R
KENORA         CLOUDY    52  28  40 S5        29.93F
$$
                *** MANITOBA***

CITY           SKY/WX    TMP DP  RH WIND       PRES   REMARKS
BRANDON        PTCLDY    72  41  33 S15       29.79F
DAUPHIN        CLEAR     77  43  29 SW15      29.69F
ISLAND LAKE    MOCLDY    52  32  46 S7        29.71
PILOT MOUND      N/A     61  36  39 S14         N/A
THE PAS        PTCLDY    64  46  52 SE9       29.58S
THOMPSON       PTCLDY    57  39  51 S3        29.60F
WINNIPEG       PTCLDY    61  32  33 S15       29.84F
LYNN LAKE      PTCLDY    64  46  52 N2        29.59S
CHURCHILL      PTCLDY    32  30  93 NE13      29.64R WCI  22
GILLAM         CLEAR     52  36  54 S9        29.61F
$$
                ***SASKATCHEWAN***

CITY           SKY/WX    TMP DP  RH WIND       PRES   REMARKS
ESTEVAN        PTCLDY    64  41  42 S8        29.83S
KINDERSLEY     MOCLDY    70  34  26 S2        29.73F
LLOYDMINSTER   MOCLDY    70  37  30 N2        29.69S
PRINCE ALBERT  MOCLDY    75  34  22 W10       29.64R
REGINA         PTCLDY    72  30  21 SW8       29.77R
YORKTON        CLEAR     72  41  33 S8        29.71S
N. BATTLEFORD  CLEAR     64  36  34 CALM      29.70F
LA RONGE       MOCLDY    68  36  30 S3        29.53F
SASKATOON      PTCLDY    66  36  32 W7        29.71S
SWIFT CURRENT  CLEAR     68  34  28 S9        29.80S
$$
NOTE: THESE ARE AUTOMATED STATIONS WITH LIMITED QUALITY CONTROL
      "FAIR" INDICATES FEW OR NO CLOUDS BELOW 12,000 FEET WITH NO
      SIGNIFICANT WEATHER AND/OR OBSTRUCTIONS TO VISIBILITY.
      SKY/WX - SKY CONDITION AND SIGNIFICANT WEATHER.
      TMP - AIR TEMPERATURE.    DP   - DEWPOINT TEMPERATURE.
      RH  - RELATIVE HUMIDITY.  PRES - PRESSURE.
      HX  - HEAT INDEX.         WCI  - WIND CHILL INDEX.
$




USA.gov is the U.S. government's official web portal to all federal, state and local government web resources and services.